Tracking 30685 objects as of 18-Jun-2025
HD Live streaming from Space Station
objects crossing your sky now

NOAA 16 DEB

Track NOAA 16 DEB now!
10-day predictions


NORAD ID: 41250
Int'l Code: 2000-055FA
Perigee: 643.7 km
Apogee: 675.1 km
Inclination: 99.0 °
Period: 97.8 minutes
Semi major axis: 7030 km
RCS: Unknown
Launch date: September 21, 2000
Source: United States (US)
Launch site: AIR FORCE WESTERN TEST RANGE (AFWTR)

Note: This is SATELLITE DEBRIS
Your satellite tracking list
Your tracking list is empty




NASA's NSSDC Master Catalog

Two Line Element Set (TLE):
1 41250U 00055FA  25167.43999333  .00028220  00000-0  43909-2 0  9997
2 41250  99.0025 344.6457 0022336 161.0640 199.1400 14.72777755491499
Source of the keplerian elements: AFSPC